Location: ??
(31.9467°N, 34.8903°E)
Time: 01:42:04
(UTC+00:00)

Cosmos 1553 Rocket - Pass Details

Date: 29 October 2020
Orbit: 940 x 1009 km, 82.9° (Epoch: 25 November)

Event Time Altitude Azimuth Distance (km) Brightness Sun altitude
Rises 15:52:03 0° 189° (S) 3,717 7.3 -13.1°
Reaches altitude 10° 15:54:35 10° 190° (S) 2,766 6.6 -13.6°
Maximum altitude 16:00:56 76° 276° (W) 1,026 4.2 -14.9°
Drops below altitude 10° 16:07:14 10° 2° (N) 2,741 6.3 -16.3°
Sets 16:09:45 0° 4° (N) 3,682 6.9 -16.8°
